Location: Davayat
(45.9471°N, 3.1105°E)
Time: 22:29:29
(UTC+00:00)

Meteor 2-12 Rocket - Pass Details

Date: 21 April 2021
Orbit: 935 x 958 km, 82.5° (Epoch: 16 May)

Event Time Altitude Azimuth Distance (km) Brightness Sun altitude
Rises 22:19:25 0° 2° (N) 3,633 8.4 -28.7°
Reaches altitude 10° 22:22:53 10° 22° (NNE) 2,678 7.3 -28.9°
Maximum altitude 22:26:51 18° 63° (ENE) 2,163 6.3 -29.2°
Enters shadow 22:27:40 17° 72° (ENE) 2,184 6.3 -29.2°
